Temperature
15 13 13 13 13 14 14 14 13 13 14 14 12 12 13 14 13 12 13 14 14 15 15 14 14 14 14 14 13 13 12 12 11 11 10 10 10 10 9 9 9 9 8 8
13 13 13 14 13 14 14 14 13 13 13 13 12 12 12 12 12 13 13 13 14 14 14 14 14 14 14 14 13 13 12 12 11 11 11 10 10 10 9 9 9 9 8 8
13 14 14 14 14 14 13 13 13 13 13 13 12 12 12 12 12 12 13 14 14 15 15 14 14 14 14 14 13 13 12 12 11 11 10 10 10 10 9 9 9 9 8 8
13 13 14 14 14 13 13 13 13 13 13 11 12 11 12 12 11 10 11 12 13 14 14 14 14 14 14 13 13 12 12 11 11 11 10 10 10 10 9 9 9 8 8 8
12 13 13 13 13 13 13 13 13 13 12 11 11 11 12 11 12 11 10 12 13 14 14 14 14 14 13 13 13 12 12 11 11 10 10 10 10 9 9 9 8 8 8 7
13 13 14 14 14 13 13 12 11 9 10 11 11 10 11 11 12 12 11 12 13 13 13 14 13 13 13 12 12 12 11 11 11 10 10 10 9 9 9 8 8 8 7 7
13 13 14 14 13 13 13 12 11 11 10 10 11 10 11 12 12 11 12 13 13 13 13 13 13 13 13 12 12 12 11 11 11 10 10 9 9 9 9 8 8 7 7 7
12 12 13 13 13 12 12 12 11 12 11 10 10 9 11 12 12 12 12 13 13 13 13 13 13 13 13 13 12 12 11 11 10 10 10 9 9 8 8 8 7 7 6 6
11 12 13 13 13 12 11 11 11 10 11 10 10 10 10 12 12 11 12 12 13 13 13 13 13 13 13 12 12 12 11 11 10 10 9 9 8 8 8 7 7 6 6 5
11 12 13 12 13 12 11 10 9 10 11 11 10 10 12 14 14 12 11 12 13 13 13 13 13 13 13 12 12 11 11 10 10 9 9 8 8 8 7 7 6 6 5 5
11 12 12 12 12 11 10 11 10 9 9 10 10 11 12 12 13 11 11 13 14 14 14 14 13 13 12 11 11 11 10 10 9 9 8 8 7 7 7 6 6 5 5 4
10 10 10 11 11 11 11 10 9 10 10 8 8 11 12 11 10 11 12 14 15 15 14 14 13 12 12 11 11 10 10 9 9 8 8 7 7 6 6 6 5 5 4 4
10 10 11 12 11 10 11 10 9 9 9 7 8 11 12 11 11 12 13 14 15 15 14 13 13 12 12 11 11 10 10 9 9 8 7 7 6 6 6 5 5 4 4 3
11 10 11 11 12 10 10 10 9 9 9 8 8 11 12 12 11 12 14 15 14 14 14 13 13 12 12 11 10 10 9 9 8 7 7 6 6 6 5 4 4 4 3 3
11 10 10 11 11 10 11 11 9 9 9 10 10 10 13 12 11 13 14 14 13 13 13 13 13 12 11 11 10 9 9 8 8 7 6 6 5 5 4 4 3 3 2 2
9 10 10 11 11 10 10 10 10 9 10 9 10 11 12 12 13 12 13 12 12 13 13 13 13 12 11 11 10 9 9 8 7 7 6 5 5 4 4 3 3 2 2 1
8 9 10 9 10 11 10 10 10 9 9 9 10 12 12 11 10 11 12 12 12 13 13 12 12 12 11 10 10 9 8 7 7 6 5 5 4 4 3 3 2 2 1 1
8 8 8 8 10 10 11 11 11 10 10 9 9 10 10 10 11 11 12 12 12 12 12 12 11 11 10 10 9 8 7 7 6 5 5 4 4 3 3 2 2 1 1 0
8 8 7 7 8 9 10 10 10 10 10 9 9 9 9 9 9 10 12 12 12 12 11 11 10 10 9 9 8 7 7 6 5 5 4 4 3 3 2 2 1 1 0 -0
6 7 7 6 8 9 11 11 11 11 10 11 9 9 8 8 8 9 12 11 11 11 10 10 10 9 8 8 7 6 6 5 5 4 4 3 2 2 1 1 0 0 -1 -1
7 7 7 6 7 8 9 10 10 11 11 12 11 10 9 8 10 11 11 11 10 10 9 9 9 8 7 7 6 6 5 4 4 3 3 2 2 1 1 0 -0 -1 -1 -2
7 6 6 6 7 9 9 9 9 11 12 12 12 12 11 11 11 11 10 10 9 9 8 8 7 7 6 6 5 5 4 3 3 2 2 2 1 1 0 -0 -1 -1 -2 -2
7 9 8 8 10 10 10 11 12 13 12 13 13 13 12 11 11 10 9 9 8 8 7 7 6 6 5 5 4 4 3 3 2 2 1 1 0 -0 -1 -1 -2 -2 -3 -3
6 7 7 6 7 9 11 11 12 12 13 13 12 12 11 11 10 9 9 8 7 7 6 6 5 5 5 4 3 3 2 2 1 1 1 0 -0 -1 -1 -2 -2 -3 -3 -4
7 5 6 6 7 8 10 12 13 13 12 12 11 11 11 10 9 9 8 7 6 6 5 5 4 4 4 3 3 2 1 1 0 0 -0 -1 -1 -2 -2 -2 -3 -4 -4 -5
6 6 7 9 9 8 11 13 13 12 12 11 11 10 9 9 8 7 7 6 5 5 4 4 3 3 3 2 2 1 1 0 -0 -1 -1 -2 -2 -3 -3 -4 -4 -4 -5 -5
Wind_Speed
3 3 5 8 8 5 3 4 6 8 5 4 10 14 16 9 8 11 10 10 9 8 4 2 3 4 5 5 6 7 7 6 6 4 4 3 3 2 2 3 4 4 4 3
3 5 9 5 4 4 3 4 7 8 4 4 8 13 13 9 9 11 13 13 12 8 6 5 4 4 4 5 6 6 7 7 6 4 4 3 3 2 2 2 4 4 4 3
9 5 3 5 4 5 5 6 7 7 7 5 7 11 8 6 4 6 9 10 10 12 11 8 7 5 5 5 6 6 6 6 6 6 5 4 4 3 2 1 1 3 3 3
7 5 3 4 6 7 7 7 6 4 3 6 3 7 10 7 6 7 9 9 11 10 10 9 8 7 6 6 5 6 6 6 6 6 6 6 4 3 2 1 0 2 3 3
7 5 6 7 8 10 7 1 2 0 2 5 3 4 10 5 8 9 9 11 11 11 12 11 10 9 7 6 6 6 6 6 5 5 6 6 4 3 2 1 1 1 3 4
6 4 6 7 2 6 5 6 5 5 4 4 5 6 9 6 8 8 6 9 11 11 10 9 8 7 6 6 6 6 7 5 5 5 6 6 6 5 3 1 0 1 1 2
4 4 4 4 5 3 5 5 4 5 2 6 3 5 10 10 8 8 9 9 10 11 11 11 10 10 9 8 8 7 7 6 5 5 5 5 6 5 4 3 2 1 1 2
6 6 6 6 8 8 7 9 7 5 5 6 3 7 9 9 8 8 8 7 8 11 11 12 12 12 11 10 9 8 8 6 6 6 5 4 5 3 3 3 3 3 3 3
9 7 2 4 3 11 7 6 7 5 2 4 7 8 11 6 6 5 4 3 7 10 12 12 11 11 10 10 10 10 9 7 6 6 5 4 4 4 3 3 2 3 3 3
10 5 2 2 5 2 6 9 6 5 4 5 7 7 6 8 8 7 6 6 6 8 9 10 10 10 10 9 8 8 8 8 6 6 5 4 4 4 4 3 3 4 4 4
7 6 1 2 8 9 6 5 5 5 5 5 5 8 7 8 7 8 9 7 7 9 10 10 10 9 8 8 8 8 7 7 6 6 5 4 4 3 3 3 4 5 4 5
7 6 4 7 4 6 8 9 9 6 6 6 4 9 7 8 8 8 9 7 6 7 7 8 8 8 9 9 8 8 8 7 7 6 5 4 4 3 3 4 5 5 5 5
9 7 2 3 2 1 4 6 7 5 5 6 6 9 5 4 7 7 8 7 5 5 6 7 8 9 10 10 9 9 8 7 6 5 5 4 4 4 5 5 5 5 6 6
8 6 8 10 7 7 6 7 8 8 6 7 11 13 13 11 10 9 8 7 6 5 6 7 8 9 9 9 9 9 8 7 6 5 5 5 5 5 6 5 5 6 6 6
7 7 8 7 5 6 8 9 10 12 12 12 12 14 19 13 11 10 8 6 6 6 6 8 9 9 8 8 8 8 7 6 6 6 5 6 5 5 5 5 6 6 6 7
6 6 5 4 4 6 7 10 11 13 11 12 13 16 15 9 7 8 8 7 8 8 8 8 8 8 9 10 9 8 7 7 6 6 6 5 4 4 5 6 6 6 7 7
7 8 6 4 2 1 8 12 13 9 10 11 15 17 10 6 8 8 8 8 8 8 7 7 8 9 9 9 9 9 7 6 5 5 5 4 4 5 6 6 6 7 7 7
9 8 5 3 3 8 10 5 9 10 11 12 11 11 8 8 6 5 6 7 7 6 6 6 6 6 6 6 6 5 5 5 5 4 4 4 5 6 6 6 7 8 7 8
5 8 6 5 6 9 10 7 8 9 10 10 13 12 7 2 2 5 4 5 6 4 4 4 4 5 5 6 6 6 4 4 4 4 5 5 5 6 6 7 8 8 7 9
5 5 6 5 5 8 9 4 5 4 8 7 9 9 6 6 2 5 2 2 2 2 3 3 4 5 5 5 6 6 4 4 5 5 5 5 5 6 7 8 8 8 8 10
5 4 6 6 7 9 9 4 7 5 9 4 7 8 9 9 7 3 2 2 3 3 4 4 5 5 4 4 5 4 3 5 5 4 4 5 6 6 7 8 7 8 9 10
10 8 8 7 6 11 7 9 10 10 3 4 5 6 8 7 3 3 3 3 4 4 4 5 5 4 3 4 4 3 4 4 3 3 5 6 6 7 7 7 8 8 9 10
10 11 9 11 11 6 8 10 7 4 5 5 5 6 7 6 5 5 4 4 4 4 4 3 4 3 2 2 3 4 4 3 3 4 6 6 7 7 7 8 9 8 8 9
6 4 5 6 9 8 8 7 6 6 7 5 5 5 7 7 6 6 5 4 4 3 3 3 3 2 2 2 3 4 4 3 3 5 6 6 7 8 7 7 7 8 8 9
8 8 6 7 8 6 8 9 10 7 5 4 4 4 6 7 6 6 5 5 4 3 3 3 3 3 3 2 3 4 4 3 5 6 7 7 7 8 8 8 8 10 9 11
7 9 10 10 9 8 7 5 6 7 7 7 6 4 3 5 6 5 4 4 4 3 3 2 2 3 3 3 4 5 4 4 5 6 7 6 7 7 8 9 11 15 16 22
Wind_Direction
75 101 207 216 203 200 200 235 266 267 272 250 254 264 270 251 224 227 222 215 214 215 211 168 140 126 114 115 127 136 136 139 137 128 127 123 118 101 81 72 70 63 56 51
65 242 229 202 176 181 205 256 273 285 291 246 279 277 269 248 226 220 213 211 208 202 192 183 162 144 134 135 137 138 141 143 144 139 132 127 126 117 104 69 55 53 51 45
194 228 179 159 177 192 222 221 245 269 318 332 324 301 288 279 246 234 217 210 204 197 193 187 178 171 154 152 156 152 146 141 136 127 113 95 82 73 67 53 32 22 31 33
224 243 174 184 205 182 248 236 226 263 317 300 359 302 289 284 287 249 228 214 207 200 190 186 183 179 177 172 158 146 142 138 137 137 139 140 145 156 177 169 138 356 19 22
230 204 184 206 216 182 215 99 138 295 229 299 285 238 285 309 285 265 237 221 212 201 191 189 187 183 175 165 157 149 139 136 140 142 145 139 136 146 146 131 72 8 0 4
233 224 199 205 186 167 137 74 55 49 71 285 239 202 281 260 245 274 259 226 212 199 192 188 180 168 166 161 157 151 146 145 147 144 144 146 148 151 147 152 155 333 330 329
259 251 219 155 114 97 112 93 360 337 338 257 226 215 254 258 250 253 265 246 212 195 187 183 180 179 177 174 171 165 158 158 158 151 152 157 159 161 169 184 201 241 280 285
196 258 217 190 173 169 173 154 175 229 252 287 270 239 257 266 279 274 265 247 201 191 191 192 190 186 184 181 176 172 170 167 165 162 162 160 157 160 174 189 199 219 235 252
185 236 265 187 170 143 148 191 170 150 231 271 275 283 300 287 302 304 295 239 207 199 196 196 191 188 185 183 183 179 174 170 172 170 163 162 164 171 186 200 208 227 242 253
160 210 248 148 98 62 152 147 120 151 211 262 284 278 261 294 302 310 296 263 235 209 201 198 194 191 188 185 180 175 175 176 174 171 172 173 180 187 192 199 225 240 250 254
147 169 198 149 191 182 140 150 150 151 173 190 265 271 231 243 273 283 279 263 238 216 206 201 196 189 181 175 174 177 179 175 176 178 176 175 188 193 198 217 237 245 253 257
155 142 210 237 231 185 178 179 156 172 219 197 214 267 265 250 270 269 270 266 244 223 209 198 188 178 178 181 181 183 184 184 185 180 177 186 193 199 217 238 248 250 257 261
150 144 149 328 347 164 208 201 186 152 146 178 201 261 286 288 286 269 262 264 249 225 206 191 184 186 189 188 186 187 188 189 183 174 178 190 205 216 233 245 253 257 261 267
142 149 179 198 211 185 199 205 181 165 195 219 226 251 275 277 280 281 271 261 247 227 208 196 196 196 193 189 188 188 190 185 178 175 184 203 217 225 237 248 256 261 262 267
145 189 211 223 210 179 202 207 191 201 210 221 239 243 258 259 254 259 261 255 244 234 217 206 203 198 190 187 188 187 187 183 177 180 197 216 225 233 244 254 261 264 265 269
151 177 183 241 230 214 237 236 217 219 225 234 253 263 260 262 252 258 256 243 239 236 225 213 202 193 192 192 191 187 187 185 177 189 209 220 229 242 251 258 264 269 272 273
159 146 154 236 271 346 259 229 218 216 213 205 234 250 263 259 252 252 253 242 234 235 227 212 203 199 197 193 187 187 186 175 179 197 215 227 236 249 257 265 270 272 273 273
151 147 151 165 129 237 244 223 208 221 239 220 234 251 252 246 256 259 244 232 235 229 222 212 197 190 185 173 169 164 159 170 185 204 226 238 242 253 263 268 270 272 271 272
147 144 141 157 213 267 288 254 197 206 257 227 227 246 250 233 306 289 245 216 215 214 204 193 181 169 156 157 155 149 159 172 193 217 235 244 246 257 266 269 271 273 275 277
78 116 136 155 196 239 246 234 164 138 274 247 205 225 209 148 216 266 240 162 163 148 142 143 134 130 141 148 144 150 170 188 218 231 242 250 252 256 263 266 271 272 272 278
130 137 165 182 219 255 249 186 132 181 245 238 190 200 179 190 209 209 138 126 125 120 120 125 125 130 145 144 142 162 189 221 234 244 255 261 260 259 263 266 269 274 279 283
172 171 187 170 204 249 213 150 185 216 217 189 190 189 188 202 190 166 160 146 131 122 118 125 127 129 135 142 150 183 228 240 248 256 263 266 265 269 277 271 276 276 279 285
196 190 187 193 215 236 182 200 217 191 199 203 194 196 180 185 195 185 172 161 151 145 139 133 135 134 143 164 173 210 242 252 261 268 269 270 272 268 268 269 277 282 277 280
232 180 171 228 253 245 230 234 238 213 212 213 196 185 175 185 187 179 171 166 161 154 149 140 138 156 211 223 223 231 252 262 263 269 273 275 275 277 271 270 272 275 278 280
200 169 191 236 261 280 259 229 225 218 206 198 190 185 184 176 179 176 175 176 172 161 154 154 173 206 240 256 265 265 262 262 268 271 275 278 275 274 278 273 267 273 265 269
184 178 187 224 221 205 233 227 196 191 200 192 178 172 166 169 170 161 168 169 163 163 159 171 205 235 258 270 278 279 272 263 267 280 278 278 278 279 280 285 289 281 279 286
Height
1532 1537 1540 1539 1538 1539 1541 1544 1545 1541 1533 1534 1532 1527 1518 1515 1516 1515 1515 1517 1518 1520 1523 1524 1526 1527 1528 1530 1532 1534 1536 1539 1541 1543 1545 1547 1548 1548 1549 1549 1549 1548 1547 1546
1536 1537 1533 1533 1536 1538 1541 1544 1543 1538 1532 1533 1531 1524 1514 1509 1509 1507 1508 1510 1513 1516 1519 1521 1523 1525 1527 1529 1530 1532 1535 1537 1539 1541 1543 1544 1546 1546 1546 1546 1546 1545 1544 1543
1534 1531 1529 1532 1535 1539 1540 1542 1540 1539 1534 1532 1532 1523 1513 1505 1504 1503 1503 1505 1508 1511 1514 1517 1520 1523 1525 1527 1529 1531 1533 1535 1537 1539 1540 1542 1543 1543 1544 1544 1543 1543 1542 1540
1531 1528 1529 1531 1533 1536 1541 1534 1536 1536 1540 1543 1537 1539 1515 1507 1503 1500 1499 1501 1503 1506 1510 1514 1517 1520 1522 1524 1527 1529 1531 1533 1534 1536 1538 1539 1540 1540 1541 1541 1540 1540 1539 1537
1528 1525 1527 1529 1529 1531 1533 1531 1534 1536 1539 1543 1540 1541 1518 1509 1503 1497 1495 1496 1498 1502 1506 1510 1513 1517 1520 1522 1524 1526 1528 1530 1532 1533 1535 1536 1537 1537 1538 1538 1537 1536 1535 1534
1523 1522 1522 1523 1523 1526 1529 1534 1538 1544 1546 1549 1539 1543 1526 1510 1500 1494 1491 1492 1494 1498 1502 1506 1511 1514 1517 1519 1522 1524 1526 1528 1529 1531 1532 1533 1534 1534 1534 1534 1534 1533 1532 1530
1524 1521 1519 1520 1524 1527 1530 1540 1551 1550 1552 1548 1537 1539 1522 1499 1494 1492 1490 1489 1490 1494 1498 1502 1506 1510 1513 1516 1518 1521 1523 1525 1526 1528 1529 1530 1531 1531 1531 1531 1530 1529 1527 1526
1528 1528 1519 1517 1520 1527 1530 1535 1549 1551 1551 1546 1536 1536 1510 1494 1490 1488 1487 1486 1487 1490 1494 1498 1502 1506 1509 1513 1515 1518 1520 1522 1524 1525 1526 1527 1527 1528 1528 1527 1526 1525 1523 1521
1525 1525 1515 1515 1515 1520 1530 1534 1534 1545 1546 1548 1538 1525 1507 1490 1488 1486 1485 1484 1485 1487 1490 1494 1499 1502 1506 1509 1512 1515 1517 1519 1521 1522 1523 1524 1524 1524 1524 1523 1522 1520 1518 1516
1513 1521 1515 1515 1516 1519 1522 1528 1540 1543 1547 1546 1537 1528 1514 1495 1488 1486 1485 1484 1484 1486 1488 1491 1495 1499 1503 1506 1509 1512 1514 1516 1517 1519 1519 1520 1520 1520 1519 1518 1517 1515 1513 1511
1508 1517 1518 1517 1518 1520 1524 1528 1530 1538 1542 1544 1540 1524 1499 1493 1488 1487 1484 1482 1483 1484 1485 1488 1492 1496 1499 1502 1505 1508 1510 1512 1513 1515 1516 1516 1516 1516 1515 1514 1512 1510 1508 1506
1505 1514 1520 1517 1512 1512 1515 1518 1526 1533 1536 1541 1541 1521 1489 1489 1486 1485 1482 1481 1481 1482 1484 1486 1489 1492 1495 1498 1501 1503 1506 1507 1509 1511 1511 1512 1511 1511 1510 1509 1507 1505 1503 1500
1501 1511 1520 1518 1519 1516 1515 1515 1518 1521 1529 1538 1536 1514 1488 1486 1484 1482 1481 1480 1480 1481 1482 1483 1485 1487 1490 1493 1496 1498 1501 1503 1505 1506 1506 1507 1506 1506 1505 1503 1501 1499 1497 1494
1493 1504 1509 1512 1509 1509 1512 1511 1514 1519 1524 1527 1521 1504 1489 1485 1482 1480 1478 1477 1477 1478 1478 1479 1481 1483 1485 1488 1491 1493 1496 1498 1500 1501 1501 1502 1501 1500 1499 1497 1495 1493 1490 1487
1490 1499 1501 1500 1499 1502 1503 1503 1508 1510 1508 1509 1500 1496 1482 1479 1478 1476 1475 1474 1474 1474 1474 1475 1476 1478 1481 1483 1486 1488 1491 1493 1495 1496 1496 1496 1496 1495 1493 1491 1489 1486 1484 1481
1489 1495 1498 1498 1497 1500 1501 1499 1499 1500 1499 1498 1493 1486 1473 1473 1473 1472 1471 1470 1469 1469 1470 1471 1473 1474 1476 1478 1481 1483 1486 1488 1490 1490 1491 1491 1490 1489 1487 1485 1482 1480 1477 1473
1488 1494 1500 1502 1498 1497 1500 1490 1489 1490 1487 1487 1485 1475 1468 1470 1469 1468 1467 1466 1465 1466 1467 1468 1469 1471 1473 1474 1477 1479 1481 1483 1485 1485 1486 1485 1484 1483 1481 1478 1475 1472 1469 1466
1484 1491 1499 1503 1500 1504 1484 1475 1476 1478 1475 1475 1472 1467 1466 1466 1465 1464 1463 1463 1462 1463 1464 1465 1466 1468 1470 1471 1473 1475 1477 1479 1480 1480 1480 1480 1478 1476 1474 1471 1468 1465 1462 1458
1478 1486 1498 1504 1502 1494 1482 1472 1472 1474 1471 1463 1464 1462 1462 1463 1463 1461 1460 1459 1460 1461 1462 1463 1464 1465 1467 1468 1470 1471 1473 1474 1475 1475 1475 1474 1472 1470 1467 1464 1461 1458 1454 1449
1480 1482 1493 1501 1498 1493 1474 1464 1464 1469 1469 1456 1457 1458 1459 1462 1465 1461 1458 1458 1458 1459 1460 1461 1462 1463 1464 1465 1467 1468 1469 1469 1470 1470 1469 1468 1466 1463 1460 1457 1454 1450 1446 1441
1483 1486 1491 1494 1492 1482 1465 1461 1464 1473 1464 1453 1452 1453 1455 1457 1457 1457 1456 1456 1457 1458 1459 1460 1460 1461 1462 1463 1464 1464 1465 1465 1465 1464 1463 1462 1460 1457 1454 1450 1447 1443 1438 1433
1472 1481 1486 1488 1489 1478 1455 1459 1461 1455 1450 1449 1450 1450 1452 1452 1453 1454 1454 1455 1456 1456 1457 1458 1459 1459 1460 1461 1461 1461 1461 1461 1460 1459 1457 1455 1453 1450 1447 1443 1439 1435 1430 1424
1461 1459 1462 1464 1459 1450 1448 1448 1446 1447 1447 1447 1447 1448 1449 1450 1450 1451 1452 1453 1454 1455 1455 1456 1457 1457 1458 1458 1458 1458 1457 1456 1454 1453 1451 1448 1446 1443 1440 1435 1431 1426 1421 1416
1454 1452 1455 1457 1449 1444 1443 1443 1443 1444 1444 1444 1445 1446 1447 1447 1448 1449 1450 1451 1452 1453 1453 1454 1455 1455 1455 1455 1454 1454 1452 1451 1448 1446 1444 1441 1438 1434 1431 1427 1423 1418 1413 1408
1442 1448 1450 1449 1443 1440 1437 1437 1438 1439 1440 1441 1442 1443 1443 1444 1445 1446 1447 1448 1449 1450 1451 1451 1452 1452 1452 1451 1450 1449 1447 1445 1442 1440 1437 1433 1430 1426 1422 1418 1414 1409 1405 1401
1437 1439 1442 1438 1432 1434 1432 1432 1434 1435 1435 1437 1438 1439 1440 1441 1442 1443 1444 1446 1447 1447 1448 1448 1448 1448 1448 1447 1445 1444 1442 1439 1436 1432 1429 1426 1422 1418 1414 1409 1404 1399 1396 1392